2021-079C (49124 NORAD) Tracking and Keplerian Element Data

This shows tracking and keplerian element data for the satellite.

Feedback or suggestion? Click here.




ElementValue
Catalog49124
Name2021-079C
Epoch Orbit329
Epoch Day272.72509512
Epoch Year2021
RAAN344.64
Inclination98.3777
Eccentricity0.0200788
Argument of Perigee235.6157
Mean Anonmoly246.7274
Mean Motion15.0448908
Decay Rate0.04105103
L11 49124U 21079C 21272.72509512 .04105103 00000-0 16703+0 0 9994
L22 49124 98.3777 344.6400 0200788 235.6157 246.7274 15.04489080 3293



Live tracking and technical data element details for 2021-079C (NORAD 49124). 2021-079C can be tracked NOW for your location showing map with azimuth and elevation plus other details from your city location.







IsCatalogInMostPopularTable: catalog: 49124, numindb: 45
Update: records affected: 1



GetName: 49124 2021-079C

Hit Count: updated at: Sun, 28 May 2023 19:03:35 GMT